User: anonymous   Login
Location: *
(44.1392°N, 4.8079°E)
Time: 23:48:19
(UTC+00:00)
Language:

Meteor 1-28 Rocket - Orbit

View from above orbital plane
View from above orbital plane
View from above satellite
View from above satellite

Ground track
Ground track

The orbit data is extracted from the following two-line orbital elements,

1 10114U 77057B   21271.51121254  .00001021  00000-0  53515-4 0  9994
2 10114  97.3736  52.2394 0011990 253.6650 106.3266 15.17934247420559
Epoch (UTC): 28 September 2021 12:16:08
Eccentricity: 0.0011990
inclination: 97.3736°
perigee height: 504 km
apogee height: 520 km
right ascension of ascending node: 52.2394°
argument of perigee: 253.6650°
revolutions per day: 15.17934247
mean anomaly at epoch: 106.3266°
orbit number at epoch: 42055

The dashed part of the orbit path shows where the satellite is in the earth's shadow,  

DLR